This demonstration page uses our WeatherBlox Daily Observations layout. Learn more.

Left ArrowRight Arrow

39.92423, -83.80882

Hourly Observations for August 25, 2019

Temp ( °F °C ) Dew Point ( °F °C ) Humidity (%) Winds ( mph kmh ) Pressure ( in mb ) Visibility ( mi km ) Precip ( " mm )
12:56 am 00:56 Clear 56 13.3 55 12.8 97 97 ENE 8 13 30.19 1023 10 16.0934 N/A
1:56 am 01:56 Clear 55 12.8 54 12.2 96 96 ENE 7 11 30.18 1022 10 16.0934 N/A
2:56 am 02:56 Clear 55 12.8 54 12.2 96 96 ENE 8 13 30.17 1022 10 16.0934 N/A
3:56 am 03:56 Clear 54 12.2 53 11.7 97 97 ENE 7 11 30.16 1021 10 16.0934 N/A
4:56 am 04:56 Clear 53 11.7 52 11.1 96 96 E 7 11 30.15 1021 10 16.0934 N/A
5:56 am 05:56 Clear 52 11.1 51 10.6 97 97 E 6 9 30.15 1021 10 16.0934 N/A
6:56 am 06:56 Clear 52 11.1 51 10.6 97 97 ENE 7 11 30.16 1021 10 16.0934 N/A
7:56 am 07:56 Sunny 56 13.3 54 12.2 93 93 E 8 13 30.16 1021 10 16.0934 N/A
8:56 am 08:56 Sunny 61 16.1 56 13.3 84 84 E 9 15 30.16 1021 10 16.0934 N/A
9:56 am 09:56 Sunny 65 18.3 58 14.4 78 78 E 10 17 30.16 1021 10 16.0934 N/A
10:56 am 10:56 Sunny 69 20.6 60 15.6 73 73 ESE 13 20 30.15 1021 10 16.0934 N/A
11:56 am 11:56 Sunny 72 22.2 61 16.1 68 68 ESE 10 17 30.15 1021 10 16.0934 N/A
12:56 pm 12:56 Sunny 75 23.9 61 16.1 62 62 E 10 17 30.13 1020 10 16.0934 N/A
1:21 pm 13:21 Hazy 75 24 61 16 61 61 ESE 10 17 30.09 1019 1.25 2.011675 N/A
1:26 pm 13:26 Hazy 75 24 59 15 57 57 SE 10 17 30.09 1019 5 8.0467 N/A
1:56 pm 13:56 Mostly Sunny 77 25 60 15.6 56 56 ESE 10 17 30.12 1020 10 16.0934 N/A
2:56 pm 14:56 Sunny 77 25 59 15 54 54 ESE 12 19 30.1 1019 10 16.0934 N/A
3:56 pm 15:56 Sunny 78 25.6 58 14.4 50 50 ESE 13 20 30.08 1019 10 16.0934 N/A
4:56 pm 16:56 Sunny 79 26.1 58 14.4 49 49 ESE 12 19 30.07 1018 10 16.0934 N/A
5:56 pm 17:56 Sunny 77 25 58 14.4 52 52 ESE 15 24 30.05 1018 10 16.0934 N/A
6:56 pm 18:56 Sunny 76 24.4 58 14.4 54 54 ESE 12 19 30.05 1018 10 16.0934 N/A
7:56 pm 19:56 Sunny 72 22.2 58 14.4 61 61 SE 9 15 30.05 1018 10 16.0934 N/A
8:56 pm 20:56 Clear 64 17.8 57 13.9 78 78 E 8 13 30.05 1018 10 16.0934 N/A
9:56 pm 21:56 Clear 61 16.1 57 13.9 87 87 E 6 9 30.06 1018 10 16.0934 N/A
10:56 pm 22:56 Clear 61 16.1 57 13.9 87 87 ESE 7 11 30.07 1018 10 16.0934 N/A
11:56 pm 23:56 Clear 60 15.6 57 13.9 90 90 ESE 8 13 30.06 1018 10 16.0934 N/A

Powered by AerisWeather